﻿_id,日時,平均風速(m/s),平均風向,最大瞬間風速(m/s),最大風速時風向,気温(℃),湿度(%),10分間移動積算雨量(mm),1時間移動積算雨量(mm),日雨量(mm),累計雨量(mm)
1,2022-05-02T00:00:00,1.5,西北西,2.2,北西,7,95.9,0,0,1,1
2,2022-05-02T00:01:00,1.5,西北西,2.2,北西,7.1,95.9,0,0,0,1
3,2022-05-02T00:02:00,1.5,西北西,2.2,北西,7.1,95.9,0,0,0,1
4,2022-05-02T00:03:00,1.6,西北西,2.5,西,7.1,95.9,0,0,0,1
5,2022-05-02T00:04:00,1.5,西北西,2.5,西,7.1,95.8,0,0,0,1
6,2022-05-02T00:05:00,1.5,西北西,2.5,西,7.2,95.9,0,0,0,1
7,2022-05-02T00:06:00,1.5,西北西,2.5,西,7.2,95.9,0,0,0,1
8,2022-05-02T00:07:00,1.5,西北西,2.5,西,7.2,95.9,0,0,0,1
9,2022-05-02T00:08:00,1.4,西北西,2.5,西,7.3,95.9,0,0,0,1
10,2022-05-02T00:09:00,1.4,西北西,2.5,西,7.3,95.8,0,0,0,1
11,2022-05-02T00:10:00,1.4,西北西,2.5,西,7.2,95.6,0,0,0,1
12,2022-05-02T00:11:00,1.4,西北西,2.5,西,7.2,95.5,0,0,0,1
13,2022-05-02T00:12:00,1.4,西北西,2.5,西,7.1,95.5,0,0,0,1
14,2022-05-02T00:13:00,1.3,西北西,2.2,西,7.1,95.4,0,0,0,1
15,2022-05-02T00:14:00,1.3,西北西,2.2,西,7.1,95.4,0,0,0,1
16,2022-05-02T00:15:00,1.3,西北西,2.2,西,7.1,95.3,0,0,0,1
17,2022-05-02T00:16:00,1.4,西北西,2.2,西,7.2,95.5,0,0,0,1
18,2022-05-02T00:17:00,1.3,西北西,2.2,西,7.2,95.4,0,0,0,1
19,2022-05-02T00:18:00,1.4,西北西,2.2,西,7.1,95.3,0,0,0,1
20,2022-05-02T00:19:00,1.4,西北西,2.2,西,7.2,95.3,0,0,0,1
21,2022-05-02T00:20:00,1.4,西北西,2.2,西,7.2,95.4,0,0,0,1
22,2022-05-02T00:21:00,1.3,西北西,1.9,北西,7.1,95.4,0,0,0,1
23,2022-05-02T00:22:00,1.2,西北西,1.9,北西,7,95,0,0,0,1
24,2022-05-02T00:23:00,1.2,西北西,1.8,西北西,7.1,95.2,0,0,0,1
25,2022-05-02T00:24:00,1.2,西北西,1.9,西北西,7,95.2,0,0,0,1
26,2022-05-02T00:25:00,1.1,西北西,1.9,西北西,7,95.2,0,0,0,1
27,2022-05-02T00:26:00,1.1,西北西,1.9,西北西,7,95.1,0,0,0,1
28,2022-05-02T00:27:00,1,西北西,1.9,西北西,6.9,95.2,0,0,0,1
29,2022-05-02T00:28:00,0.9,西北西,1.9,西北西,6.9,95.1,0,0,0,1
30,2022-05-02T00:29:00,0.9,北西,1.9,西北西,6.8,95,0,0,0,1
31,2022-05-02T00:30:00,0.8,北西,1.9,西北西,6.8,95,0,0,0,1
32,2022-05-02T00:31:00,0.8,北北西,1.9,西北西,6.8,95.1,0,0,0,1
33,2022-05-02T00:32:00,0.7,北北西,1.9,西北西,6.8,95.1,0,0,0,1
34,2022-05-02T00:33:00,0.7,北北西,1.9,西北西,6.7,95,0,0,0,1
35,2022-05-02T00:34:00,0.6,北,1.5,西北西,6.7,95.1,0,0,0,1
36,2022-05-02T00:35:00,0.6,北,1.3,北北西,6.7,95.2,0,0,0,1
37,2022-05-02T00:36:00,0.5,北,1.3,北北西,6.6,95.2,0,0,0,1
38,2022-05-02T00:37:00,0.5,北,1.3,北北西,6.6,95.3,0,0,0,1
39,2022-05-02T00:38:00,0.5,北,1.2,北,6.5,95.2,0,0,0,1
40,2022-05-02T00:39:00,0.4,北北東,1.2,北,6.5,95.3,0,0,0,1
41,2022-05-02T00:40:00,0.4,北北東,1.2,北,6.6,95.4,0,0,0,1
42,2022-05-02T00:41:00,0.4,北北東,1.2,北,6.5,95.5,0,0,0,1
43,2022-05-02T00:42:00,0.4,北北東,1.2,北,6.5,95.5,0,0,0,1
44,2022-05-02T00:43:00,0.4,北北東,1.2,北,6.5,95.6,0,0,0,1
45,2022-05-02T00:44:00,0.3,北北東,1.2,北,6.5,95.6,0,0,0,1
46,2022-05-02T00:45:00,0.3,北東,0.7,北東,6.5,95.6,0,0,0,1
47,2022-05-02T00:46:00,0.2,静穏,0.7,北東,6.5,95.6,0,0,0,1
48,2022-05-02T00:47:00,0.2,静穏,0.7,北東,6.4,95.6,0,0,0,1
49,2022-05-02T00:48:00,0.2,静穏,0.5,東,6.4,95.6,0,0,0,1
50,2022-05-02T00:49:00,0.2,静穏,0.6,東,6.4,95.6,0,0,0,1
51,2022-05-02T00:50:00,0.3,東北東,0.7,東南東,6.4,95.7,0,0,0,1
52,2022-05-02T00:51:00,0.3,東,0.8,南東,6.4,95.7,0,0,0,1
53,2022-05-02T00:52:00,0.4,東,1,南南東,6.4,95.8,0,0,0,1
54,2022-05-02T00:53:00,0.4,東南東,1,南南東,6.4,95.9,0,0,0,1
55,2022-05-02T00:54:00,0.4,東南東,1,南南東,6.5,96,0,0,0,1
56,2022-05-02T00:55:00,0.5,東南東,1,南南東,6.4,96,0,0,0,1
57,2022-05-02T00:56:00,0.5,南東,1,南南東,6.5,96,0,0,0,1
58,2022-05-02T00:57:00,0.6,南東,1,南南東,6.5,96.1,0,0,0,1
59,2022-05-02T00:58:00,0.6,南東,1,南南東,6.5,96.2,0,0,0,1
60,2022-05-02T00:59:00,0.6,南南東,1,南南東,6.4,96.1,0,0,0,1
61,2022-05-02T01:00:00,0.6,南南東,1,南南東,6.5,96,0,0,0,1
62,2022-05-02T01:01:00,0.6,南南東,1,南南東,6.5,96.1,0,0,0,1
63,2022-05-02T01:02:00,0.6,南南東,0.9,南南東,6.5,96.2,0,0,0,1
64,2022-05-02T01:03:00,0.6,南,1.2,南西,6.6,96.3,0,0,0,1
65,2022-05-02T01:04:00,0.6,南,1.2,南西,6.6,96.3,0,0,0,1
66,2022-05-02T01:05:00,0.6,南,1.2,南西,6.6,96.3,0,0,0,1
67,2022-05-02T01:06:00,0.6,南,1.2,南西,6.4,96.2,0,0,0,1
68,2022-05-02T01:07:00,0.6,南南西,1.2,南西,6.4,96,0,0,0,1
69,2022-05-02T01:08:00,0.6,南南西,1.2,南西,6.5,96.2,0,0,0,1
70,2022-05-02T01:09:00,0.6,南西,1.2,南西,6.5,96.1,0,0,0,1
71,2022-05-02T01:10:00,0.6,南西,1.2,南西,6.6,96.2,0,0,0,1
72,2022-05-02T01:11:00,0.5,西南西,1.2,南西,6.5,96.2,0,0,0,1
73,2022-05-02T01:12:00,0.5,西南西,1.2,南西,6.4,96,0,0,0,1
74,2022-05-02T01:13:00,0.5,西南西,1.1,西北西,6.4,96,0,0,0,1
75,2022-05-02T01:14:00,0.4,西南西,1.1,西北西,6.3,96,0,0,0,1
76,2022-05-02T01:15:00,0.4,西南西,1.1,西北西,6.3,96,0,0,0,1
77,2022-05-02T01:16:00,0.5,西南西,1.1,西北西,6.2,95.9,0,0,0,1
78,2022-05-02T01:17:00,0.5,南西,1.1,西北西,6.2,96,0,0,0,1
79,2022-05-02T01:18:00,0.5,南西,1.1,西北西,6.2,96,0,0,0,1
80,2022-05-02T01:19:00,0.5,南西,1,西,6.2,96,0,0,0,1
81,2022-05-02T01:20:00,0.5,南南西,0.8,南西,6.2,96,0,0,0,1
82,2022-05-02T01:21:00,0.5,南南西,0.8,南西,6.1,96.1,0,0,0,1
83,2022-05-02T01:22:00,0.5,南南西,0.8,南西,6.1,96,0,0,0,1
84,2022-05-02T01:23:00,0.6,南南西,0.8,南西,6.1,96.1,0,0,0,1
85,2022-05-02T01:24:00,0.5,南南西,0.8,南西,6,96.1,0,0,0,1
86,2022-05-02T01:25:00,0.5,南南西,0.8,南西,6.1,96.1,0,0,0,1
87,2022-05-02T01:26:00,0.5,南南西,0.8,南西,6.1,96.2,0,0,0,1
88,2022-05-02T01:27:00,0.5,南,0.8,南西,6,96.2,0,0,0,1
89,2022-05-02T01:28:00,0.5,南,0.8,南東,6,96.1,0,0,0,1
90,2022-05-02T01:29:00,0.4,南南東,0.8,南東,6.1,96.2,0,0,0,1
91,2022-05-02T01:30:00,0.4,南南東,0.8,南東,6.2,96.3,0,0,0,1
92,2022-05-02T01:31:00,0.4,南南東,0.8,南東,6.1,96.4,0,0,0,1
93,2022-05-02T01:32:00,0.3,南南東,0.7,南東,6.1,96.3,0,0,0,1
94,2022-05-02T01:33:00,0.3,南南東,0.7,南東,6,96.3,0,0,0,1
95,2022-05-02T01:34:00,0.3,南東,0.7,南東,6,96.3,0,0,0,1
96,2022-05-02T01:35:00,0.3,南東,0.7,南東,6,96.3,0,0,0,1
97,2022-05-02T01:36:00,0.2,静穏,0.7,南東,6,96.3,0,0,0,1
98,2022-05-02T01:37:00,0.2,静穏,0.6,南南東,6,96.3,0,0,0,1
99,2022-05-02T01:38:00,0.1,静穏,0.5,東南東,6,96.3,0,0,0,1
100,2022-05-02T01:39:00,0.1,静穏,0.5,東南東,5.9,96.3,0,0,0,1
101,2022-05-02T01:40:00,0.1,静穏,0.5,東南東,5.9,96.3,0,0,0,1
102,2022-05-02T01:41:00,0.2,静穏,0.9,北西,5.8,96.2,0,0,0,1
103,2022-05-02T01:42:00,0.2,静穏,1.1,西北西,5.8,96.2,0,0,0,1
104,2022-05-02T01:43:00,0.3,西北西,1.1,西北西,5.8,96.3,0,0,0,1
105,2022-05-02T01:44:00,0.4,西北西,1.1,西北西,5.8,96.3,0,0,0,1
106,2022-05-02T01:45:00,0.5,西北西,1.2,北西,5.9,96.4,0,0,0,1
107,2022-05-02T01:46:00,0.5,西北西,1.2,北西,5.9,96.5,0,0,0,1
108,2022-05-02T01:47:00,0.6,西北西,1.2,北西,5.9,96.5,0,0,0,1
109,2022-05-02T01:48:00,0.6,西北西,1.2,北西,5.8,96.5,0,0,0,1
110,2022-05-02T01:49:00,0.6,西北西,1.2,北西,5.8,96.4,0,0,0,1
111,2022-05-02T01:50:00,0.6,西北西,1.2,北西,5.7,96.3,0,0,0,1
112,2022-05-02T01:51:00,0.7,西北西,1.2,北西,5.8,96.3,0,0,0,1
113,2022-05-02T01:52:00,0.6,西北西,1.2,北西,5.8,96.5,0,0,0,1
114,2022-05-02T01:53:00,0.6,西北西,1.2,北西,5.9,96.6,0,0,0,1
115,2022-05-02T01:54:00,0.5,西北西,1.2,北西,5.9,96.6,0,0,0,1
116,2022-05-02T01:55:00,0.5,西北西,1,西北西,5.9,96.7,0,0,0,1
117,2022-05-02T01:56:00,0.4,西北西,0.8,西北西,5.9,96.6,0,0,0,1
118,2022-05-02T01:57:00,0.4,西北西,0.8,西北西,5.9,96.6,0,0,0,1
119,2022-05-02T01:58:00,0.4,北西,0.8,西北西,5.8,96.6,0,0,0,1
120,2022-05-02T01:59:00,0.5,北西,0.8,西北西,5.8,96.5,0,0,0,1
121,2022-05-02T02:00:00,0.4,北西,0.8,西北西,5.8,96.6,0,0,0,1
122,2022-05-02T02:01:00,0.4,北西,0.7,北西,5.8,96.7,0,0,0,1
123,2022-05-02T02:02:00,0.4,北西,0.6,北北西,5.8,96.6,0,0,0,1
124,2022-05-02T02:03:00,0.3,北北西,0.6,北北西,5.8,96.7,0,0,0,1
125,2022-05-02T02:04:00,0.3,北北西,0.6,北北西,5.7,96.7,0,0,0,1
126,2022-05-02T02:05:00,0.2,静穏,0.6,北北西,5.6,96.5,0,0,0,1
127,2022-05-02T02:06:00,0.2,静穏,0.6,北北西,5.6,96.5,0,0,0,1
128,2022-05-02T02:07:00,0.2,静穏,0.6,北北西,5.7,96.6,0,0,0,1
129,2022-05-02T02:08:00,0.1,静穏,0.5,北北西,5.7,96.6,0,0,0,1
130,2022-05-02T02:09:00,0.1,静穏,0.4,北北西,5.7,96.7,0,0,0,1
131,2022-05-02T02:10:00,0,静穏,0.4,北北西,5.6,96.7,0,0,0,1
132,2022-05-02T02:11:00,0,静穏,0.4,北北西,5.6,96.7,0,0,0,1
133,2022-05-02T02:12:00,0,静穏,0.3,北北西,5.6,96.8,0,0,0,1
134,2022-05-02T02:13:00,0,静穏,0.3,北北西,5.6,96.8,0,0,0,1
135,2022-05-02T02:14:00,0.1,静穏,0.4,北西,5.6,96.8,0,0,0,1
136,2022-05-02T02:15:00,0.1,静穏,0.5,北北西,5.6,96.8,0,0,0,1
137,2022-05-02T02:16:00,0.2,静穏,0.6,北,5.6,96.8,0,0,0,1
138,2022-05-02T02:17:00,0.2,静穏,0.6,北,5.6,96.8,0,0,0,1
139,2022-05-02T02:18:00,0.2,静穏,0.8,北西,5.6,96.9,0,0,0,1
140,2022-05-02T02:19:00,0.3,北北西,0.8,北西,5.5,96.8,0,0,0,1
141,2022-05-02T02:20:00,0.3,北北西,0.8,北西,5.6,96.8,0,0,0,1
142,2022-05-02T02:21:00,0.4,北北西,1,北北東,5.6,96.9,0,0,0,1
143,2022-05-02T02:22:00,0.4,北北西,1.4,北,5.6,96.9,0,0,0,1
144,2022-05-02T02:23:00,0.5,北北西,1.4,北,5.6,97,0,0,0,1
145,2022-05-02T02:24:00,0.5,北北西,1.4,北,5.6,97,0,0,0,1
146,2022-05-02T02:25:00,0.6,北,1.4,北,5.6,97,0,0,0,1
147,2022-05-02T02:26:00,0.6,北,1.4,北,5.5,96.9,0,0,0,1
148,2022-05-02T02:27:00,0.6,北,1.4,北,5.6,96.9,0,0,0,1
149,2022-05-02T02:28:00,0.6,北,1.4,北,5.6,97,0,0,0,1
150,2022-05-02T02:29:00,0.6,北,1.4,北,5.5,97,0,0,0,1
151,2022-05-02T02:30:00,0.7,北,1.8,北,5.6,97,0,0,0,1
152,2022-05-02T02:31:00,0.8,北,1.8,北,5.5,97,0,0,0,1
153,2022-05-02T02:32:00,0.7,北,1.8,北,5.5,97,0,0,0,1
154,2022-05-02T02:33:00,0.7,北,1.8,北,5.5,97,0,0,0,1
155,2022-05-02T02:34:00,0.7,北北西,1.8,北,5.5,97,0,0,0,1
156,2022-05-02T02:35:00,0.7,北北西,1.8,北,5.5,97,0,0,0,1
157,2022-05-02T02:36:00,0.7,北北西,1.8,北,5.5,97,0,0,0,1
158,2022-05-02T02:37:00,0.7,北北西,1.8,北,5.5,97.1,0,0,0,1
159,2022-05-02T02:38:00,0.7,北北西,1.8,北,5.4,97.1,0,0,0,1
160,2022-05-02T02:39:00,0.7,北北西,1.8,北,5.4,97,0,0,0,1
161,2022-05-02T02:40:00,0.6,北北西,1.7,北北西,5.4,97,0,0,0,1
162,2022-05-02T02:41:00,0.5,北北西,1,北北西,5.4,97.1,0,0,0,1
163,2022-05-02T02:42:00,0.5,北北西,1,北北西,5.4,97.1,0,0,0,1
164,2022-05-02T02:43:00,0.5,北,1.3,北,5.5,97.2,0,0,0,1
165,2022-05-02T02:44:00,0.5,北,1.3,北,5.4,97.2,0,0,0,1
166,2022-05-02T02:45:00,0.5,北,1.3,北,5.4,97.1,0,0,0,1
167,2022-05-02T02:46:00,0.5,北,1.3,北,5.4,97.1,0,0,0,1
168,2022-05-02T02:47:00,0.5,北,1.3,北,5.5,97.2,0,0,0,1
169,2022-05-02T02:48:00,0.5,北,1.3,北,5.4,97.3,0,0,0,1
170,2022-05-02T02:49:00,0.5,北,1.3,北,5.4,97.2,0,0,0,1
171,2022-05-02T02:50:00,0.6,北北東,1.3,北,5.4,97.2,0,0,0,1
172,2022-05-02T02:51:00,0.5,北,1.3,北,5.4,97.2,0,0,0,1
173,2022-05-02T02:52:00,0.5,北,1.3,北,5.4,97.2,0,0,0,1
174,2022-05-02T02:53:00,0.6,北,1.3,北,5.4,97.3,0,0,0,1
175,2022-05-02T02:54:00,0.5,北,1.1,北,5.4,97.3,0,0,0,1
176,2022-05-02T02:55:00,0.5,北,1.1,北,5.4,97.3,0,0,0,1
177,2022-05-02T02:56:00,0.4,北,1,北,5.5,97.4,0,0,0,1
178,2022-05-02T02:57:00,0.4,北,0.9,北,5.5,97.4,0,0,0,1
179,2022-05-02T02:58:00,0.3,北,0.9,北,5.5,97.4,0,0,0,1
180,2022-05-02T02:59:00,0.3,北,0.7,北,5.4,97.4,0,0,0,1
181,2022-05-02T03:00:00,0.2,静穏,0.7,北,5.4,97.3,0,0,0,1
182,2022-05-02T03:01:00,0.2,静穏,0.7,北,5.4,97.3,0,0,0,1
183,2022-05-02T03:02:00,0.2,静穏,0.7,北,5.3,97.2,0,0,0,1
184,2022-05-02T03:03:00,0.2,静穏,0.7,北,5.3,97.2,0,0,0,1
185,2022-05-02T03:04:00,0.2,静穏,0.9,北西,5.3,97.2,0,0,0,1
186,2022-05-02T03:05:00,0.2,静穏,0.9,北西,5.3,97.2,0,0,0,1
187,2022-05-02T03:06:00,0.2,静穏,0.9,北西,5.3,97.3,0,0,0,1
188,2022-05-02T03:07:00,0.3,北西,0.9,北西,5.4,97.4,0,0,0,1
189,2022-05-02T03:08:00,0.4,北西,1,北北西,5.3,97.4,0,0,0,1
190,2022-05-02T03:09:00,0.4,北西,1,北北西,5.3,97.2,0,0,0,1
191,2022-05-02T03:10:00,0.5,北西,1,北北西,5.2,97.2,0,0,0,1
192,2022-05-02T03:11:00,0.5,北西,1,北北西,5.2,97.3,0,0,0,1
193,2022-05-02T03:12:00,0.5,北西,1,北北西,5.3,97.3,0,0,0,1
194,2022-05-02T03:13:00,0.6,北西,1,北北西,5.2,97.4,0,0,0,1
195,2022-05-02T03:14:00,0.6,北西,1,北北西,5.1,97.3,0,0,0,1
196,2022-05-02T03:15:00,0.5,北西,1,北北西,5.1,97.2,0,0,0,1
197,2022-05-02T03:16:00,0.5,西北西,1,北北西,5.2,97.3,0,0,0,1
198,2022-05-02T03:17:00,0.6,西北西,1,北北西,5.2,97.4,0,0,0,1
199,2022-05-02T03:18:00,0.5,西北西,0.9,西南西,5.2,97.4,0,0,0,1
200,2022-05-02T03:19:00,0.5,西,0.9,西南西,5.1,97.4,0,0,0,1
201,2022-05-02T03:20:00,0.4,西,0.9,西南西,5.1,97.3,0,0,0,1
202,2022-05-02T03:21:00,0.4,西南西,0.9,西南西,5.1,97.4,0,0,0,1
203,2022-05-02T03:22:00,0.4,南西,0.9,西南西,5,97.3,0,0,0,1
204,2022-05-02T03:23:00,0.4,南西,0.9,西南西,5,97.3,0,0,0,1
205,2022-05-02T03:24:00,0.4,南西,0.8,南西,5,97.3,0,0,0,1
206,2022-05-02T03:25:00,0.4,南西,0.7,南南東,5,97.3,0,0,0,1
207,2022-05-02T03:26:00,0.4,南南西,0.7,南南東,5,97.3,0,0,0,1
208,2022-05-02T03:27:00,0.4,南南西,0.9,南,5,97.4,0,0,0,1
209,2022-05-02T03:28:00,0.5,南南西,0.9,南,5,97.4,0,0,0,1
210,2022-05-02T03:29:00,0.5,南,1,南,5,97.4,0,0,0,1
211,2022-05-02T03:30:00,0.6,南,1,南,5,97.4,0,0,0,1
212,2022-05-02T03:31:00,0.6,南南西,1,南,5,97.4,0,0,0,1
213,2022-05-02T03:32:00,0.6,南南西,1,南,5,97.4,0,0,0,1
214,2022-05-02T03:33:00,0.6,南南西,1,南,5,97.4,0,0,0,1
215,2022-05-02T03:34:00,0.6,南南西,1,南,5,97.4,0,0,0,1
216,2022-05-02T03:35:00,0.6,南南西,1.2,西南西,5,97.4,0,0,0,1
217,2022-05-02T03:36:00,0.6,南西,1.2,西南西,5,97.4,0,0,0,1
218,2022-05-02T03:37:00,0.6,南西,1.2,西南西,5,97.5,0,0,0,1
219,2022-05-02T03:38:00,0.6,西南西,1.2,西南西,5,97.5,0,0,0,1
220,2022-05-02T03:39:00,0.6,西南西,1.2,西南西,5,97.5,0,0,0,1
221,2022-05-02T03:40:00,0.6,西,1.2,西南西,4.9,97.4,0,0,0,1
222,2022-05-02T03:41:00,0.6,西,1.3,西南西,5,97.4,0,0,0,1
223,2022-05-02T03:42:00,0.6,西,1.4,西南西,5,97.4,0,0,0,1
224,2022-05-02T03:43:00,0.7,西,1.4,西南西,4.9,97.5,0,0,0,1
225,2022-05-02T03:44:00,0.7,西,1.4,西南西,4.9,97.4,0,0,0,1
226,2022-05-02T03:45:00,0.7,西,1.4,西南西,4.9,97.4,0,0,0,1
227,2022-05-02T03:46:00,0.6,西,1.4,西南西,4.9,97.4,0,0,0,1
228,2022-05-02T03:47:00,0.7,西,1.4,西南西,5,97.4,0,0,0,1
229,2022-05-02T03:48:00,0.7,西,1.4,西南西,5,97.5,0,0,0,1
230,2022-05-02T03:49:00,0.6,西,1.4,西南西,4.9,97.5,0,0,0,1
231,2022-05-02T03:50:00,0.6,西南西,1.4,西南西,4.9,97.5,0,0,0,1
232,2022-05-02T03:51:00,0.6,西南西,1.4,西南西,4.9,97.5,0,0,0,1
233,2022-05-02T03:52:00,0.5,西,1,西南西,5,97.5,0,0,0,1
234,2022-05-02T03:53:00,0.5,西南西,1,西南西,4.9,97.5,0,0,0,1
235,2022-05-02T03:54:00,0.4,西南西,0.8,西南西,4.9,97.5,0,0,0,1
236,2022-05-02T03:55:00,0.4,西南西,0.8,西南西,4.9,97.5,0,0,0,1
237,2022-05-02T03:56:00,0.3,西南西,0.8,西南西,4.9,97.4,0,0,0,1
238,2022-05-02T03:57:00,0.3,西南西,0.8,西南西,4.9,97.5,0,0,0,1
239,2022-05-02T03:58:00,0.3,西南西,0.8,西南西,4.9,97.5,0,0,0,1
240,2022-05-02T03:59:00,0.3,西,0.8,西南西,4.8,97.4,0,0,0,1
241,2022-05-02T04:00:00,0.2,静穏,0.7,西,4.8,97.4,0,0,0,1
242,2022-05-02T04:01:00,0.3,西,0.7,西,4.7,97.4,0,0,0,1
243,2022-05-02T04:02:00,0.3,西,0.7,西,4.8,97.4,0,0,0,1
244,2022-05-02T04:03:00,0.3,西,0.7,西,4.7,97.4,0,0,0,1
245,2022-05-02T04:04:00,0.3,西,0.7,西,4.7,97.4,0,0,0,1
246,2022-05-02T04:05:00,0.3,西,0.7,西,4.7,97.4,0,0,0,1
247,2022-05-02T04:06:00,0.3,西,0.7,西,4.7,97.4,0,0,0,1
248,2022-05-02T04:07:00,0.4,西,0.7,西,4.7,97.4,0,0,0,1
249,2022-05-02T04:08:00,0.4,西,0.7,西,4.7,97.4,0,0,0,1
250,2022-05-02T04:09:00,0.4,西,0.7,西,4.7,97.4,0,0,0,1
251,2022-05-02T04:10:00,0.4,西,0.7,西,4.7,97.5,0,0,0,1
252,2022-05-02T04:11:00,0.3,西北西,0.7,北西,4.7,97.5,0,0,0,1
253,2022-05-02T04:12:00,0.3,西北西,0.7,北西,4.7,97.5,0,0,0,1
254,2022-05-02T04:13:00,0.3,西北西,0.7,北西,4.7,97.6,0,0,0,1
255,2022-05-02T04:14:00,0.2,静穏,0.7,北西,4.7,97.6,0,0,0,1
256,2022-05-02T04:15:00,0.2,静穏,0.7,北西,4.8,97.6,0,0,0,1
257,2022-05-02T04:16:00,0.2,静穏,0.7,北西,4.7,97.6,0,0,0,1
258,2022-05-02T04:17:00,0.2,静穏,0.7,北西,4.8,97.6,0,0,0,1
259,2022-05-02T04:18:00,0.2,静穏,0.8,北西,4.7,97.6,0,0,0,1
260,2022-05-02T04:19:00,0.2,静穏,0.8,北西,4.6,97.5,0,0,0,1
261,2022-05-02T04:20:00,0.2,静穏,0.8,北西,4.6,97.5,0,0,0,1
262,2022-05-02T04:21:00,0.3,西,0.8,北西,4.7,97.5,0,0,0,1
263,2022-05-02T04:22:00,0.3,西,0.8,北西,4.7,97.6,0,0,0,1
264,2022-05-02T04:23:00,0.3,西北西,0.8,北西,4.8,97.6,0,0,0,1
265,2022-05-02T04:24:00,0.4,西北西,0.8,北西,4.7,97.6,0,0,0,1
266,2022-05-02T04:25:00,0.4,西北西,0.8,北西,4.7,97.6,0,0,0,1
267,2022-05-02T04:26:00,0.4,北西,0.8,北西,4.8,97.6,0,0,0,1
268,2022-05-02T04:27:00,0.4,北西,0.8,北西,4.8,97.6,0,0,0,1
269,2022-05-02T04:28:00,0.5,北西,1.3,北,4.9,97.6,0,0,0,1
270,2022-05-02T04:29:00,0.5,北北西,1.3,北,4.8,97.7,0,0,0,1
271,2022-05-02T04:30:00,0.5,北北西,1.3,北,4.9,97.6,0,0,0,1
272,2022-05-02T04:31:00,0.6,北北西,1.3,北,4.9,97.6,0,0,0,1
273,2022-05-02T04:32:00,0.6,北北西,1.3,北,4.8,97.6,0,0,0,1
274,2022-05-02T04:33:00,0.6,北北西,1.3,北,4.8,97.6,0,0,0,1
275,2022-05-02T04:34:00,0.6,北北西,1.3,北,4.8,97.6,0,0,0,1
276,2022-05-02T04:35:00,0.6,北,1.3,北,4.9,97.6,0,0,0,1
277,2022-05-02T04:36:00,0.6,北,1.3,北,4.9,97.7,0,0,0,1
278,2022-05-02T04:37:00,0.6,北,1.3,北,4.9,97.6,0,0,0,1
279,2022-05-02T04:38:00,0.5,北,1.1,北,4.8,97.6,0,0,0,1
280,2022-05-02T04:39:00,0.4,北,1,北,4.8,97.6,0,0,0,1
281,2022-05-02T04:40:00,0.4,北,1,北,4.8,97.6,0,0,0,1
282,2022-05-02T04:41:00,0.3,北,0.8,北,4.7,97.5,0,0,0,1
283,2022-05-02T04:42:00,0.3,北,0.8,北,4.8,97.5,0,0,0,1
284,2022-05-02T04:43:00,0.2,静穏,0.8,北,4.8,97.6,0,0,0,1
285,2022-05-02T04:44:00,0.2,静穏,0.8,北,4.8,97.7,0,0,0,1
286,2022-05-02T04:45:00,0.2,静穏,0.7,北,4.8,97.7,0,0,0,1
287,2022-05-02T04:46:00,0.1,静穏,0.6,北北東,4.9,97.7,0,0,0,1
288,2022-05-02T04:47:00,0.1,静穏,0.4,北北西,4.9,97.7,0,0,0,1
289,2022-05-02T04:48:00,0.1,静穏,1.1,北北東,5,97.7,0,0,0,1
290,2022-05-02T04:49:00,0.2,静穏,1.1,北北東,4.9,97.7,0,0,0,1
291,2022-05-02T04:50:00,0.2,静穏,1.1,北北東,4.8,97.7,0,0,0,1
292,2022-05-02T04:51:00,0.2,静穏,1.1,北北東,4.8,97.6,0,0,0,1
293,2022-05-02T04:52:00,0.2,静穏,1.1,北北東,4.8,97.6,0,0,0,1
294,2022-05-02T04:53:00,0.3,北,1.1,北北東,4.9,97.6,0,0,0,1
295,2022-05-02T04:54:00,0.3,北北東,1.1,北北東,4.8,97.7,0,0,0,1
296,2022-05-02T04:55:00,0.3,北北東,1.1,北北東,4.8,97.6,0,0,0,1
297,2022-05-02T04:56:00,0.3,北北東,1.1,北北東,4.8,97.6,0,0,0,1
298,2022-05-02T04:57:00,0.4,北北東,1.1,北北東,4.8,97.6,0,0,0,1
299,2022-05-02T04:58:00,0.4,北,1,北東,4.7,97.6,0,0,0,1
300,2022-05-02T04:59:00,0.4,北,1,北東,4.7,97.6,0,0,0,1
301,2022-05-02T05:00:00,0.3,北,0.9,北西,4.8,97.6,0,0,0,1
302,2022-05-02T05:01:00,0.4,北北西,0.9,北西,4.6,97.6,0,0,0,1
303,2022-05-02T05:02:00,0.4,北北西,0.9,北西,4.6,97.5,0,0,0,1
304,2022-05-02T05:03:00,0.5,北西,1,西北西,4.7,97.5,0,0,0,1
305,2022-05-02T05:04:00,0.5,北西,1,西北西,4.6,97.6,0,0,0,1
306,2022-05-02T05:05:00,0.5,西北西,1,西北西,4.6,97.6,0,0,0,1
307,2022-05-02T05:06:00,0.5,西北西,1,西北西,4.7,97.6,0,0,0,1
308,2022-05-02T05:07:00,0.6,西北西,1,西北西,4.6,97.6,0,0,0,1
309,2022-05-02T05:08:00,0.6,西,1.1,西南西,4.5,97.5,0,0,0,1
310,2022-05-02T05:09:00,0.6,西,1.1,西南西,4.4,97.4,0,0,0,1
311,2022-05-02T05:10:00,0.7,西,1.1,西南西,4.4,97.4,0,0,0,1
312,2022-05-02T05:11:00,0.7,西,1.1,西南西,4.4,97.4,0,0,0,1
313,2022-05-02T05:12:00,0.7,西,1.1,西南西,4.4,97.5,0,0,0,1
314,2022-05-02T05:13:00,0.7,西,1.1,西南西,4.5,97.5,0,0,0,1
315,2022-05-02T05:14:00,0.7,西南西,1.1,西南西,4.5,97.6,0,0,0,1
316,2022-05-02T05:15:00,0.8,西南西,1.1,西南西,4.5,97.6,0,0,0,1
317,2022-05-02T05:16:00,0.8,西南西,1.1,西南西,4.4,97.6,0,0,0,1
318,2022-05-02T05:17:00,0.8,西南西,1.1,西南西,4.4,97.5,0,0,0,1
319,2022-05-02T05:18:00,0.7,西南西,1.1,西南西,4.4,97.5,0,0,0,1
320,2022-05-02T05:19:00,0.7,西南西,1.1,西南西,4.5,97.6,0,0,0,1
321,2022-05-02T05:20:00,0.7,西南西,1.1,西南西,4.4,97.6,0,0,0,1
322,2022-05-02T05:21:00,0.7,西南西,1.1,西南西,4.4,97.6,0,0,0,1
323,2022-05-02T05:22:00,0.7,西南西,1.1,西南西,4.4,97.6,0,0,0,1
324,2022-05-02T05:23:00,0.7,西南西,1.1,西南西,4.4,97.6,0,0,0,1
325,2022-05-02T05:24:00,0.7,西南西,1.2,西,4.4,97.5,0,0,0,1
326,2022-05-02T05:25:00,0.7,西,1.2,西,4.4,97.5,0,0,0,1
327,2022-05-02T05:26:00,0.7,西,1.2,西,4.4,97.6,0,0,0,1
328,2022-05-02T05:27:00,0.7,西,1.2,西,4.4,97.6,0,0,0,1
329,2022-05-02T05:28:00,0.7,西,1.2,西,4.4,97.6,0,0,0,1
330,2022-05-02T05:29:00,0.7,西,1.2,西,4.4,97.6,0,0,0,1
331,2022-05-02T05:30:00,0.6,西,1.2,西,4.4,97.6,0,0,0,1
332,2022-05-02T05:31:00,0.6,西,1.2,西,4.4,97.6,0,0,0,1
333,2022-05-02T05:32:00,0.7,西,1.2,西,4.3,97.5,0,0,0,1
334,2022-05-02T05:33:00,0.7,西,1.2,西,4.3,97.5,0,0,0,1
335,2022-05-02T05:34:00,0.7,西,1.2,西,4.4,97.6,0,0,0,1
336,2022-05-02T05:35:00,0.6,西,1.2,西,4.4,97.6,0,0,0,1
337,2022-05-02T05:36:00,0.6,西,1.2,西,4.4,97.6,0,0,0,1
338,2022-05-02T05:37:00,0.5,西,1.2,西,4.4,97.6,0,0,0,1
339,2022-05-02T05:38:00,0.5,西北西,1.2,西,4.5,97.7,0,0,0,1
340,2022-05-02T05:39:00,0.6,西北西,1.2,西,4.5,97.7,0,0,0,1
341,2022-05-02T05:40:00,0.6,西北西,1.2,西,4.6,97.7,0,0,0,1
342,2022-05-02T05:41:00,0.6,北西,1.2,西,4.7,97.7,0,0,0,1
343,2022-05-02T05:42:00,0.6,北西,1.8,北北西,4.7,97.8,0,0,0,0
344,2022-05-02T05:43:00,0.7,北西,2.1,北北西,4.6,97.7,0,0,0,0
345,2022-05-02T05:44:00,0.7,北北西,2.3,北,4.6,97.7,0,0,0,0
346,2022-05-02T05:45:00,0.9,北北西,2.6,北,4.6,97.7,0,0,0,0
347,2022-05-02T05:46:00,1,北北西,2.6,北,4.6,97.7,0,0,0,0
348,2022-05-02T05:47:00,1.1,北,2.6,北,4.6,97.6,0,0,0,0
349,2022-05-02T05:48:00,1,北,2.6,北,4.7,97.7,0,0,0,0
350,2022-05-02T05:49:00,1,北,2.6,北,4.7,97.7,0,0,0,0
351,2022-05-02T05:50:00,1,北,2.6,北,4.7,97.7,0,0,0,0
352,2022-05-02T05:51:00,1.1,北,2.6,北,4.8,97.7,0,0,0,0
353,2022-05-02T05:52:00,1.1,北,2.6,北,4.7,97.7,0,0,0,0
354,2022-05-02T05:53:00,1,北,2.6,北,4.6,97.7,0,0,0,0
355,2022-05-02T05:54:00,1,北,2.6,北,4.6,97.6,0,0,0,0
356,2022-05-02T05:55:00,1,北,2.3,北北東,4.6,97.6,0,0,0,0
357,2022-05-02T05:56:00,0.9,北,2.3,北北東,4.5,97.6,0,0,0,0
358,2022-05-02T05:57:00,1,北,2.3,北北東,4.6,97.6,0,0,0,0
359,2022-05-02T05:58:00,1,北,2.3,北北東,4.6,97.7,0,0,0,0
360,2022-05-02T05:59:00,1,北,2.3,北北東,4.7,97.7,0,0,0,0
361,2022-05-02T06:00:00,1,北,2.3,北北東,4.7,97.7,0,0,0,0
362,2022-05-02T06:01:00,1,北,2.3,北北東,4.6,97.7,0,0,0,0
363,2022-05-02T06:02:00,0.9,北,2.1,北北西,4.5,97.6,0,0,0,0
364,2022-05-02T06:03:00,0.9,北,2.1,北北西,4.6,97.6,0,0,0,0
365,2022-05-02T06:04:00,0.8,北,1.8,北,4.6,97.7,0,0,0,0
366,2022-05-02T06:05:00,0.8,北,1.8,北,4.5,97.7,0,0,0,0
367,2022-05-02T06:06:00,0.7,北,1.6,北北西,4.6,97.6,0,0,0,0
368,2022-05-02T06:07:00,0.6,北,1.6,北北西,4.7,97.7,0,0,0,0
369,2022-05-02T06:08:00,0.6,北,1.6,北北西,4.5,97.7,0,0,0,0
370,2022-05-02T06:09:00,0.6,北,1.2,北,4.5,97.6,0,0,0,0
371,2022-05-02T06:10:00,0.5,北北西,1.2,北,4.4,97.5,0,0,0,0
372,2022-05-02T06:11:00,0.5,北北西,1.2,北,4.4,97.5,0,0,0,0
373,2022-05-02T06:12:00,0.5,北北西,1,西北西,4.5,97.6,0,0,0,0
374,2022-05-02T06:13:00,0.5,北北西,1,西北西,4.5,97.6,0,0,0,0
375,2022-05-02T06:14:00,0.4,北北西,1,西北西,4.5,97.7,0,0,0,0
376,2022-05-02T06:15:00,0.4,北西,1,西北西,4.6,97.7,0,0,0,0
377,2022-05-02T06:16:00,0.3,北西,1,西北西,4.6,97.7,0,0,0,0
378,2022-05-02T06:17:00,0.3,北西,1,西北西,4.7,97.7,0,0,0,0
379,2022-05-02T06:18:00,0.3,北西,1,西北西,4.6,97.7,0,0,0,0
380,2022-05-02T06:19:00,0.3,北西,1,西北西,4.6,97.7,0,0,0,0
381,2022-05-02T06:20:00,0.2,静穏,0.8,北,4.8,97.7,0,0,0,0
382,2022-05-02T06:21:00,0.3,北北西,1.5,北,4.8,97.7,0,0,0,0
383,2022-05-02T06:22:00,0.3,北北西,1.5,北,4.6,97.7,0,0,0,0
384,2022-05-02T06:23:00,0.3,北北西,1.5,北,4.5,97.7,0,0,0,0
385,2022-05-02T06:24:00,0.3,北北西,1.5,北,4.4,97.6,0,0,0,0
386,2022-05-02T06:25:00,0.3,北,1.5,北,4.4,97.5,0,0,0,0
387,2022-05-02T06:26:00,0.3,北,1.5,北,4.4,97.5,0,0,0,0
388,2022-05-02T06:27:00,0.3,北,1.5,北,4.6,97.6,0,0,0,0
389,2022-05-02T06:28:00,0.3,北,1.5,北,4.6,97.7,0,0,0,0
390,2022-05-02T06:29:00,0.2,静穏,1.5,北,4.6,97.7,0,0,0,0
391,2022-05-02T06:30:00,0.2,静穏,1.5,北,4.5,97.7,0,0,0,0
392,2022-05-02T06:31:00,0.2,静穏,0.8,北,4.6,97.7,0,0,0,0
393,2022-05-02T06:32:00,0.2,静穏,0.6,北北東,4.7,97.7,0,0,0,0
394,2022-05-02T06:33:00,0.2,静穏,0.6,北北東,4.7,97.7,0,0,0,0
395,2022-05-02T06:34:00,0.2,静穏,0.6,北北東,4.8,97.7,0,0,0,0
396,2022-05-02T06:35:00,0.2,静穏,0.7,西,4.8,97.8,0,0,0,0
397,2022-05-02T06:36:00,0.2,静穏,0.9,北西,4.7,97.7,0,0,0,0
398,2022-05-02T06:37:00,0.3,北北西,1,北北西,4.7,97.7,0,0,0,0
399,2022-05-02T06:38:00,0.4,北北西,1,北北西,4.6,97.7,0,0,0,0
400,2022-05-02T06:39:00,0.4,北北西,1,北北西,4.7,97.7,0,0,0,0
401,2022-05-02T06:40:00,0.4,北北西,1,北北西,4.7,97.7,0,0,0,0
402,2022-05-02T06:41:00,0.4,北北西,1,北北西,4.7,97.7,0,0,0,0
403,2022-05-02T06:42:00,0.4,北北西,1,北北西,4.7,97.7,0,0,0,0
404,2022-05-02T06:43:00,0.4,北北西,1,北北西,4.7,97.7,0,0,0,0
405,2022-05-02T06:44:00,0.4,北,1,北北西,4.9,97.7,0,0,0,0
406,2022-05-02T06:45:00,0.4,北,1,北北西,4.8,97.7,0,0,0,0
407,2022-05-02T06:46:00,0.4,北,1,北北西,4.8,97.7,0,0,0,0
408,2022-05-02T06:47:00,0.3,北,0.7,北北西,4.8,97.7,0,0,0,0
409,2022-05-02T06:48:00,0.3,北,0.7,北北西,4.9,97.7,0,0,0,0
410,2022-05-02T06:49:00,0.3,北,1,北北西,4.8,97.7,0,0,0,0
411,2022-05-02T06:50:00,0.3,北,1,北北西,4.8,97.7,0,0,0,0
412,2022-05-02T06:51:00,0.3,北,1,北北西,4.9,97.7,0,0,0,0
413,2022-05-02T06:52:00,0.3,北,1,北北西,5.1,97.8,0,0,0,0
414,2022-05-02T06:53:00,0.3,北,1,北北西,5.1,97.8,0,0,0,0
415,2022-05-02T06:54:00,0.3,北,1,北北西,5.1,97.8,0,0,0,0
416,2022-05-02T06:55:00,0.3,北,1,北北西,5.1,97.8,0,0,0,0
417,2022-05-02T06:56:00,0.3,北,1,北北西,5.1,97.8,0,0,0,0
418,2022-05-02T06:57:00,0.3,北,1,北北西,5.2,97.8,0,0,0,0
419,2022-05-02T06:58:00,0.4,北北西,1,北北西,5,97.7,0,0,0,0
420,2022-05-02T06:59:00,0.3,北,0.9,北北西,5.1,97.7,0,0,0,0
421,2022-05-02T07:00:00,0.3,北北西,0.9,北北西,5.3,97.8,0,0,0,0
422,2022-05-02T07:01:00,0.3,北,0.9,北北西,5.2,97.8,0,0,0,0
423,2022-05-02T07:02:00,0.3,北,0.9,北北西,5.1,97.8,0,0,0,0
424,2022-05-02T07:03:00,0.3,北北西,0.9,北北西,5.2,97.7,0,0,0,0
425,2022-05-02T07:04:00,0.3,北北西,0.9,北北西,5.3,97.7,0,0,0,0
426,2022-05-02T07:05:00,0.3,北北西,0.9,北北西,5.3,97.8,0,0,0,0
427,2022-05-02T07:06:00,0.3,北北西,0.9,北北西,5.3,97.8,0,0,0,0
428,2022-05-02T07:07:00,0.2,静穏,0.9,北北西,5.3,97.7,0,0,0,0
429,2022-05-02T07:08:00,0.1,静穏,0.7,北,5.3,97.7,0,0,0,0
430,2022-05-02T07:09:00,0.1,静穏,0.9,東北東,5.4,97.8,0,0,0,0
431,2022-05-02T07:10:00,0.2,静穏,0.9,東北東,5.5,97.8,0,0,0,0
432,2022-05-02T07:11:00,0.2,静穏,0.9,東北東,5.6,97.8,0,0,0,0
433,2022-05-02T07:12:00,0.2,静穏,1.2,東北東,5.6,97.8,0,0,0,0
434,2022-05-02T07:13:00,0.3,北東,1.2,東北東,5.7,97.8,0,0,0,0
435,2022-05-02T07:14:00,0.3,北東,1.2,東北東,5.9,97.9,0,0,0,0
436,2022-05-02T07:15:00,0.4,東,1.2,東北東,6.1,97.9,0,0,0,0
437,2022-05-02T07:16:00,0.5,東,1.7,東南東,6.2,97.9,0,0,0,0
438,2022-05-02T07:17:00,0.6,東,2.1,南東,6.2,97.9,0,0,0,0
439,2022-05-02T07:18:00,0.7,東,2.1,南東,6.2,97.9,0,0,0,0
440,2022-05-02T07:19:00,0.7,東南東,2.1,南東,6.3,97.9,0,0,0,0